Temp
17 18 17 18 19 20 20 18 18 20 19 19 18 18 18 18 18 19 19 19 19 18 18 19 19 19 20 20 20 20 20 20 20 20 20 20 20 20 20 20 20 20 20 20 19 19 19 19 20 20 20 19 18 17 16 16 15 14 14 13 12 11 11 10 10 9 9 8 8 8 8 8 9 9 9 10 11 12 12 13 13 13 13 13 13 12
16 17 17 18 20 20 19 18 18 18 18 18 18 18 17 17 17 18 19 19 18 17 18 19 19 18 19 19 20 20 19 20 20 20 21 21 21 21 20 20 20 21 20 20 19 19 18 19 19 19 19 18 17 17 16 16 15 15 14 13 12 11 10 10 10 9 9 9 9 8 9 9 9 9 9 10 11 11 12 12 12 12 12 12 12 12
15 15 16 17 18 18 18 18 17 17 17 17 17 16 16 16 17 18 18 18 17 17 18 18 17 18 18 19 19 20 20 20 20 20 21 21 21 21 21 21 20 21 20 20 20 19 18 18 19 19 18 18 18 18 17 16 15 14 13 13 12 11 11 10 10 10 9 9 9 9 9 9 8 8 9 9 10 11 11 10 11 11 11 11 11 11
16 17 17 17 16 17 18 17 17 17 16 16 16 16 16 17 18 18 18 17 16 17 17 16 16 17 19 19 18 19 19 20 20 20 20 20 20 20 21 21 20 20 20 20 20 19 18 18 17 16 16 17 17 16 16 15 14 13 13 12 12 11 11 10 10 10 9 9 8 8 8 8 8 8 8 8 8 9 9 9 10 10 10 11 11 11
18 19 17 16 16 16 17 17 17 17 17 16 16 16 17 17 18 18 18 17 16 17 17 16 18 19 20 20 19 20 18 19 19 19 19 19 19 20 19 19 19 19 19 19 19 19 19 17 15 15 16 16 15 15 15 15 15 14 13 12 12 11 11 10 10 9 9 8 8 8 8 8 7 7 7 7 7 7 7 8 9 9 10 10 11 11
17 18 17 17 16 15 16 16 16 17 17 17 16 16 17 18 17 17 17 16 16 18 16 16 19 21 21 20 21 22 20 20 19 18 20 21 19 19 19 19 20 19 18 18 18 18 17 15 13 14 15 14 13 15 17 17 16 15 13 12 12 11 10 10 9 9 8 8 8 7 7 7 7 6 6 6 7 6 7 8 8 9 10 10 10 10
16 17 17 17 17 15 15 15 16 16 16 17 17 17 17 17 17 16 16 16 17 18 15 15 19 19 19 20 22 22 21 22 22 21 22 22 20 19 19 19 19 19 18 18 17 16 16 15 14 14 14 14 15 17 18 16 15 14 13 12 12 11 10 10 9 9 8 8 8 8 8 7 7 7 7 7 7 7 8 8 8 8 8 9 9 9
17 16 16 16 16 15 15 15 16 15 16 17 15 17 18 17 16 16 15 16 16 16 15 15 18 17 18 20 20 20 20 21 23 22 21 20 19 19 19 19 19 19 18 17 17 16 16 16 14 13 14 15 16 16 16 14 13 13 12 12 12 11 10 10 9 9 8 8 8 8 8 8 8 8 8 8 7 7 8 7 7 7 7 8 8 8
17 17 17 16 15 15 15 17 16 15 17 17 14 14 16 16 15 15 16 16 14 15 15 15 16 18 18 19 19 18 20 21 22 21 20 19 20 20 20 20 19 18 17 16 16 16 17 15 12 12 13 14 15 14 13 12 12 12 11 11 11 11 10 10 9 9 9 9 8 8 8 8 8 8 8 8 7 7 7 7 7 7 7 7 7 8
17 16 16 16 16 16 17 16 16 17 17 15 13 13 14 14 14 14 15 16 15 15 16 15 16 18 20 20 20 18 19 22 22 20 19 19 19 20 20 20 19 17 16 16 16 16 16 12 10 11 11 12 12 11 10 10 11 11 10 10 10 10 10 9 9 9 9 8 8 8 8 8 8 8 8 7 7 6 6 6 6 6 6 6 7 7
16 14 13 16 17 17 17 14 13 15 15 13 14 16 15 14 14 14 14 15 16 16 17 17 17 18 19 21 21 20 20 21 21 22 23 21 21 21 21 19 17 15 15 16 17 17 15 10 9 10 11 11 11 10 10 9 9 10 10 9 9 10 9 9 9 9 9 8 8 8 8 8 8 8 7 7 7 6 6 6 5 5 6 6 6 6
15 14 14 16 16 16 16 15 12 11 12 14 16 17 17 16 15 15 14 15 16 17 17 17 16 17 19 20 20 19 19 19 19 21 24 24 23 24 23 19 15 13 15 16 17 18 16 14 12 9 8 11 11 10 9 9 8 8 9 9 9 9 9 9 9 9 9 8 8 8 8 8 8 8 8 7 7 7 6 6 5 5 5 5 5 5
16 15 15 15 15 15 17 17 14 12 12 14 16 16 17 16 16 16 15 15 15 16 16 15 15 16 18 20 20 20 20 20 20 20 22 22 22 23 22 19 15 13 15 17 17 18 17 17 16 10 7 9 10 10 9 8 8 8 8 8 8 9 9 8 8 8 8 8 8 8 8 8 8 8 8 8 7 7 7 6 6 5 4 4 4 5
18 16 14 15 16 15 17 17 17 16 14 14 15 16 16 16 16 16 16 14 15 16 14 13 15 16 18 20 21 21 22 21 20 20 19 19 20 20 19 17 16 16 17 16 16 16 15 17 17 10 6 8 10 10 9 8 8 8 7 7 7 8 8 8 8 8 8 8 8 8 8 8 8 8 8 8 8 7 7 7 6 6 5 5 5 6
18 17 16 17 17 16 16 17 18 17 14 13 15 16 16 17 17 17 18 17 18 18 14 12 15 17 18 20 20 21 21 19 19 18 17 16 16 16 16 17 18 18 18 15 14 15 15 16 13 8 7 9 10 10 8 8 8 8 8 7 6 7 7 8 8 8 8 7 7 7 7 8 8 8 8 8 8 8 7 7 7 6 6 6 6 6
16 18 17 15 15 14 15 16 16 17 16 14 14 16 16 17 18 18 18 19 18 17 15 14 15 17 18 20 19 18 18 18 18 17 17 17 16 16 18 19 19 18 17 15 15 15 16 15 9 6 9 11 11 10 9 8 9 8 8 8 7 7 7 7 7 7 7 7 7 7 7 7 7 8 8 8 8 8 8 7 7 7 7 7 6 6
16 17 16 14 14 14 14 15 15 16 17 15 13 16 16 15 17 18 17 18 17 16 17 17 17 17 19 20 20 19 19 19 19 19 20 18 17 18 19 18 17 17 16 15 16 16 16 15 10 8 11 11 11 10 9 9 10 9 9 9 8 8 7 6 6 6 7 7 7 7 7 7 7 7 7 8 8 7 7 7 7 7 7 7 7 6
16 17 16 16 17 14 11 13 15 14 15 15 15 16 15 14 16 16 15 16 16 15 17 19 19 19 20 20 19 20 21 21 21 20 20 19 19 20 19 17 16 16 15 15 15 15 15 15 12 9 11 12 11 10 9 8 8 8 8 8 7 8 7 7 7 6 6 7 7 7 7 7 7 7 7 7 7 7 7 7 7 7 7 7 6 6
15 16 17 17 17 15 11 13 15 14 13 14 15 15 15 15 16 15 14 15 15 15 16 18 19 19 19 20 20 21 21 21 21 20 20 21 21 19 17 17 16 15 15 16 16 15 15 15 12 9 9 10 9 9 8 7 7 7 7 6 5 5 6 6 6 6 6 6 7 7 7 7 7 7 7 7 6 6 6 6 6 6 6 6 6 6
14 15 16 15 15 15 14 14 16 15 13 13 13 14 14 15 15 15 14 15 15 15 16 17 17 18 19 20 20 20 20 20 20 20 21 21 19 17 17 17 16 16 16 15 15 14 12 11 9 7 7 7 7 7 7 6 6 6 6 5 5 5 5 5 5 5 5 5 6 6 6 7 7 7 7 6 6 6 6 6 6 6 6 6 6 5
14 14 15 15 14 14 15 15 15 16 15 14 14 14 14 14 15 15 14 15 15 14 15 15 15 17 20 20 19 19 18 19 19 20 21 20 17 16 16 16 16 15 14 12 11 10 9 8 7 6 6 6 6 6 6 6 6 6 6 6 5 5 5 5 4 5 5 5 5 5 5 6 6 6 6 6 6 6 6 6 6 6 6 6 5 5
14 14 14 14 14 14 15 16 15 16 17 16 15 15 15 15 15 14 13 15 15 14 14 14 14 16 19 19 19 18 18 18 18 19 19 17 16 17 17 17 15 12 10 8 7 7 7 6 5 5 5 6 6 6 6 6 6 6 6 6 6 5 5 5 5 5 5 5 5 5 5 5 5 5 5 5 5 6 6 6 6 6 6 6 5 5
14 13 13 13 14 14 15 15 15 16 16 16 15 15 16 15 15 14 13 14 14 14 15 14 13 14 17 18 18 18 18 17 17 17 17 17 17 17 16 14 10 7 6 5 5 5 5 4 4 4 5 5 5 6 6 6 6 6 6 6 6 6 6 6 6 6 6 5 5 5 5 5 5 5 5 5 5 5 6 6 5 5 6 5 5 5
13 12 12 12 13 14 14 14 13 13 14 14 13 14 14 14 15 15 14 14 14 13 14 13 12 14 16 17 16 17 17 16 16 16 15 14 14 12 9 7 5 4 4 4 4 4 4 4 4 4 4 4 5 5 5 5 5 6 6 6 6 6 6 6 6 6 6 6 6 6 5 5 5 5 5 5 5 5 6 5 5 5 5 5 5 4
12 13 13 12 12 13 13 14 13 12 12 12 12 13 13 13 13 13 13 13 12 13 14 13 12 15 16 16 16 17 16 17 17 15 10 7 7 6 4 4 4 4 4 4 4 4 4 4 4 4 4 4 4 4 5 5 5 5 5 5 5 5 6 6 6 6 6 6 6 6 5 5 5 5 5 5 5 5 5 5 5 4 4 4 4 4
12 13 14 12 11 12 12 13 14 13 12 11 11 12 12 12 12 12 12 12 11 13 14 13 13 15 16 16 16 17 16 16 14 9 5 4 4 4 3 4 4 3 3 3 3 3 4 4 4 4 4 4 4 4 4 4 4 4 4 4 5 5 5 5 5 5 5 5 5 5 5 5 5 5 5 5 6 5 5 4 4 4 4 4 4 4
10 11 12 12 11 12 12 13 14 14 12 12 12 12 12 12 12 11 11 11 12 13 13 13 14 14 14 15 14 13 12 10 7 4 3 4 3 3 3 3 3 3 3 3 3 3 3 3 3 3 3 3 4 3 4 4 4 4 4 4 4 4 4 4 4 5 5 5 4 4 4 4 5 5 5 5 5 5 5 4 4 4 4 4 3 3
9 10 11 11 11 12 12 12 12 12 11 11 12 12 12 12 11 11 10 11 12 12 12 14 14 12 12 13 11 8 6 5 3 2 3 3 2 3 3 3 3 3 3 3 3 3 3 3 3 3 3 3 3 3 3 3 3 3 3 3 3 3 3 3 3 4 4 4 4 4 4 4 5 5 5 5 5 4 4 4 4 4 3 3 3 3
8 8 10 11 10 11 10 10 10 10 10 10 10 10 11 11 11 11 10 11 12 10 11 12 12 11 12 10 7 4 4 4 3 2 2 2 2 2 2 2 3 3 3 3 3 3 3 2 2 2 2 2 2 2 3 3 3 3 3 3 2 2 3 2 3 3 3 3 4 4 4 4 4 4 5 5 4 4 4 4 4 3 3 3 3 3
8 8 10 9 9 9 9 9 9 9 9 10 10 10 10 10 10 10 10 11 10 10 11 11 11 11 9 6 4 3 3 3 3 3 3 2 2 2 2 2 2 2 2 2 2 2 2 2 2 2 2 2 2 2 2 2 2 2 2 2 2 2 2 2 2 2 2 3 3 3 3 3 3 4 4 4 4 4 4 3 3 3 3 3 2 2
8 8 9 8 7 7 8 9 9 9 9 9 9 10 10 10 10 10 10 10 10 10 11 11 11 11 6 2 3 4 3 3 3 2 2 2 2 2 2 2 2 2 2 2 2 2 2 2 2 2 1 1 2 2 2 2 2 2 2 2 1 1 2 2 2 1 2 2 2 2 2 2 2 3 3 3 3 4 3 3 3 3 2 2 2 1
7 7 7 7 6 6 8 8 8 9 8 8 8 9 9 10 10 10 10 11 10 9 10 10 10 8 4 2 3 3 3 3 3 2 2 2 2 2 2 2 2 2 2 2 2 2 2 2 2 2 2 1 1 2 2 1 1 1 1 1 1 1 1 1 1 1 1 2 2 2 2 1 1 1 2 2 2 3 3 3 2 2 2 2 1 1
6 6 6 6 5 5 7 7 7 7 6 6 8 9 10 10 10 10 11 9 7 6 7 8 7 4 2 2 2 2 3 3 3 2 2 1 2 2 2 2 2 2 2 2 2 2 2 2 2 2 2 2 2 2 2 2 1 1 1 1 1 1 1 1 1 1 1 1 1 1 1 1 1 1 1 1 1 2 2 2 2 2 1 1 1 1
6 5 5 5 5 5 6 6 6 5 4 6 8 9 9 9 9 9 8 5 4 4 5 4 4 3 2 2 2 2 3 3 3 3 2 2 2 2 2 2 2 2 2 2 2 2 2 2 2 2 2 2 2 1 1 1 1 1 1 0 1 1 1 1 1 1 1 1 1 1 1 1 1 1 1 1 1 1 1 1 1 1 1 1 0 -0
5 5 4 5 4 4 5 5 4 4 5 6 6 5 5 6 7 6 4 2 3 4 3 2 3 3 2 2 2 2 3 3 3 3 3 2 3 3 2 2 2 2 2 2 2 2 2 2 2 2 2 2 1 1 1 1 1 0 0 0 0 0 1 1 1 1 1 1 1 1 0 0 1 1 1 1 1 0 0 0 1 1 1 0 -0 -1
4 4 4 4 4 4 4 4 4 6 7 6 4 4 4 5 5 4 4 3 2 3 3 3 3 3 3 2 2 2 3 2 2 2 3 3 3 3 3 2 2 2 2 2 2 1 1 1 1 1 1 1 1 1 1 0 0 -0 -1 -0 -0 0 0 0 0 1 1 1 1 1 0 0 -0 0 1 1 1 0 -0 -0 -0 0 -0 -1 -1 -1
4 4 4 3 4 4 3 4 5 6 6 6 6 4 4 4 5 5 4 3 2 2 3 3 3 3 2 2 2 3 2 1 2 2 3 3 4 3 2 2 2 2 1 1 1 1 1 1 1 1 1 1 1 0 0 -0 -1 -1 -1 -1 -1 -0 -0 -0 0 0 0 0 0 0 0 0 -0 -0 0 1 0 0 -0 -0 -1 -1 -1 -1 -1 -2
3 3 4 3 4 5 4 4 4 4 5 7 5 3 3 4 4 4 3 2 2 2 2 2 3 3 2 2 2 2 2 1 2 3 3 3 3 3 2 2 2 1 1 1 1 1 1 1 1 1 1 0 -0 -0 -1 -1 -2 -2 -2 -2 -1 -1 -1 -1 -0 -0 -0 -0 -0 -0 -0 -0 -0 -0 -0 -0 0 0 0 -0 -1 -1 -1 -2 -2 -2
3 3 3 3 3 5 4 4 4 4 5 6 5 4 4 3 3 4 3 2 2 2 2 2 3 3 2 2 2 2 1 1 2 3 4 3 3 3 2 2 1 1 1 1 1 1 1 1 0 0 -0 -1 -1 -1 -2 -2 -3 -3 -3 -3 -2 -2 -2 -1 -1 -1 -1 -1 -1 -1 -1 -1 -1 -1 -1 -1 -0 0 0 -0 -1 -1 -2 -2 -2 -2
2 3 3 3 3 4 4 4 4 5 6 5 4 4 4 3 3 4 3 3 3 3 3 2 2 3 2 2 2 1 1 2 2 3 4 3 2 2 1 1 1 1 1 1 1 1 0 0 -0 -1 -1 -1 -2 -2 -3 -4 -4 -4 -4 -3 -3 -3 -3 -2 -2 -2 -2 -2 -2 -2 -2 -1 -1 -1 -1 -1 -1 -0 -0 -0 -1 -2 -2 -3 -3 -3
3 3 2 3 3 3 3 4 4 4 5 4 4 4 4 3 3 3 3 4 3 3 3 3 3 3 3 2 1 1 1 3 3 3 4 2 1 1 0 -0 0 0 0 0 0 0 -0 -1 -1 -2 -2 -2 -3 -3 -4 -4 -5 -5 -5 -4 -4 -4 -3 -3 -4 -4 -4 -4 -4 -3 -2 -2 -2 -2 -2 -2 -1 -1 -1 -1 -1 -2 -3 -3 -3 -4
2 2 2 2 2 2 3 3 2 3 5 4 3 3 3 3 3 4 4 4 3 4 4 3 3 3 3 2 1 1 2 3 3 2 2 2 1 1 -0 -1 -1 -1 -1 -0 -1 -1 -2 -2 -2 -3 -3 -3 -4 -4 -5 -5 -5 -6 -6 -5 -5 -5 -4 -5 -5 -5 -6 -5 -4 -3 -3 -3 -3 -3 -3 -2 -2 -2 -1 -1 -1 -2 -3 -4 -4 -5
3 2 2 3 3 2 2 2 2 3 4 4 3 4 4 4 4 5 4 3 4 4 4 3 3 3 2 2 1 1 1 2 2 1 1 1 1 0 -1 -1 -2 -2 -2 -2 -2 -2 -3 -3 -4 -4 -4 -4 -5 -5 -6 -6 -6 -6 -6 -6 -6 -5 -6 -6 -6 -7 -7 -6 -5 -4 -4 -4 -4 -4 -4 -3 -3 -3 -2 -2 -2 -3 -3 -4 -5 -5
4 3 2 3 4 3 2 2 3 4 4 4 4 5 5 5 5 4 3 3 4 3 3 3 2 2 2 2 2 1 1 1 1 1 0 -0 -0 -1 -1 -2 -2 -3 -3 -3 -3 -3 -4 -4 -5 -5 -5 -5 -6 -7 -7 -7 -7 -7 -7 -7 -6 -7 -7 -8 -8 -8 -7 -6 -6 -6 -6 -6 -6 -6 -5 -5 -4 -4 -3 -3 -3 -4 -4 -5 -6 -6
3 3 3 3 4 4 3 3 4 4 4 3 3 3 4 4 4 4 3 3 3 3 2 2 2 2 2 1 1 1 1 1 1 0 -0 -1 -1 -1 -2 -2 -3 -3 -4 -4 -4 -4 -5 -5 -6 -6 -7 -7 -7 -8 -8 -8 -8 -8 -8 -8 -8 -8 -9 -9 -9 -9 -8 -8 -8 -8 -8 -8 -8 -8 -7 -6 -5 -4 -4 -4 -4 -5 -5 -6 -7 -7
3 3 3 3 3 3 3 4 4 3 3 4 4 4 4 4 4 3 3 2 2 2 2 2 1 2 2 1 0 1 1 0 0 -1 -1 -2 -2 -2 -3 -3 -4 -4 -5 -5 -5 -6 -6 -6 -7 -8 -8 -8 -8 -8 -9 -9 -9 -9 -9 -9 -10 -10 -10 -10 -10 -10 -10 -10 -10 -10 -10 -10 -9 -9 -8 -7 -6 -5 -5 -5 -5 -5 -6 -6 -7 -7
3 3 2 2 2 2 2 3 4 3 4 4 4 4 4 3 3 2 2 2 2 2 1 1 1 1 1 0 0 0 -0 -0 -1 -2 -2 -3 -4 -4 -4 -4 -5 -6 -6 -6 -6 -7 -7 -8 -9 -9 -9 -9 -9 -9 -9 -10 -10 -10 -10 -10 -11 -11 -12 -12 -12 -12 -12 -12 -12 -12 -12 -11 -10 -10 -9 -8 -7 -6 -5 -5 -5 -5 -6 -7 -7 -7
2 2 2 2 2 2 2 3 4 3 3 3 3 2 3 3 3 2 1 1 1 1 1 1 0 -0 -0 -1 -1 -1 -2 -2 -3 -4 -4 -5 -5 -5 -5 -6 -6 -7 -7 -7 -7 -8 -8 -9 -10 -10 -10 -10 -10 -10 -11 -11 -11 -11 -11 -12 -12 -13 -13 -14 -14 -14 -14 -13 -13 -13 -13 -12 -11 -10 -9 -8 -7 -6 -6 -6 -6 -6 -6 -6 -6 -7
2 2 1 1 1 1 2 3 3 2 2 3 3 2 2 2 2 2 1 1 1 1 0 -0 -2 -2 -2 -3 -3 -4 -4 -4 -5 -6 -6 -6 -6 -7 -7 -7 -8 -8 -8 -8 -9 -9 -9 -10 -10 -11 -11 -11 -11 -11 -12 -12 -12 -12 -13 -13 -13 -14 -15 -15 -15 -15 -15 -15 -15 -14 -13 -13 -12 -11 -10 -9 -8 -7 -6 -6 -6 -6 -6 -6 -6 -6
1 1 1 1 0 0 1 2 2 2 2 2 3 3 2 2 1 1 1 0 -0 -1 -2 -2 -3 -4 -5 -5 -5 -6 -6 -6 -7 -7 -7 -8 -8 -8 -8 -9 -9 -9 -9 -9 -10 -10 -10 -11 -11 -12 -12 -12 -12 -12 -13 -13 -13 -13 -14 -15 -15 -15 -16 -16 -16 -16 -16 -15 -15 -15 -14 -13 -12 -12 -11 -10 -9 -8 -7 -6 -6 -6 -6 -6 -6 -6
1 1 2 1 1 1 2 3 3 2 2 2 3 3 0 -2 -2 -1 -2 -3 -4 -5 -6 -6 -5 -6 -7 -7 -7 -7 -8 -8 -8 -8 -9 -9 -9 -9 -10 -10 -10 -11 -10 -10 -11 -11 -12 -12 -12 -12 -13 -13 -13 -13 -14 -14 -14 -15 -15 -16 -16 -17 -17 -17 -17 -17 -17 -16 -16 -15 -15 -14 -13 -13 -12 -11 -9 -9 -8 -7 -7 -6 -6 -6 -6 -6
Height
807 809 812 809 804 797 794 799 798 793 797 802 805 807 806 807 801 793 788 782 786 788 783 777 767 762 762 759 757 752 747 750 749 742 735 732 732 730 729 725 719 716 708 702 702 704 707 709 711 713 713 714 715 716 717 717 718 719 721 723 725 728 733 735 737 740 742 745 748 752 753 755 757 761 765 767 769 771 773 776 778 781 783 785 787 789
809 810 808 799 791 789 792 797 798 799 802 804 807 808 808 810 799 788 786 780 784 789 780 774 767 759 761 758 754 751 747 743 740 739 735 727 724 723 722 719 712 708 702 700 703 703 705 707 708 709 709 710 710 710 712 712 712 714 716 718 720 723 727 729 731 734 735 736 738 741 743 747 752 755 758 760 762 766 769 772 774 777 779 781 784 786
812 809 803 795 792 794 796 798 802 804 806 806 809 812 809 807 797 785 784 783 787 789 779 776 768 755 756 755 748 745 740 733 729 733 734 725 721 718 714 711 708 705 701 699 701 701 702 704 704 705 705 705 706 706 707 707 708 711 712 713 716 719 721 723 726 729 730 733 736 739 742 746 750 752 754 757 760 763 766 768 771 773 776 778 781 783
807 800 794 792 796 799 798 800 803 804 806 806 808 811 805 801 798 788 785 786 789 788 781 780 768 747 746 746 741 737 730 727 728 727 728 726 721 712 705 705 708 706 701 699 699 698 699 701 701 702 703 703 704 704 704 705 706 707 708 710 712 715 717 719 722 725 729 733 738 742 744 747 750 752 755 758 760 761 762 764 767 769 772 775 777 780
790 786 788 792 796 800 800 802 804 804 803 801 803 806 799 794 795 791 789 789 789 785 782 782 762 731 728 736 732 729 730 729 728 726 725 723 714 705 704 706 705 704 704 702 698 695 697 701 703 703 703 702 701 701 700 701 702 703 704 707 710 713 715 717 720 724 728 732 736 740 744 747 749 752 754 755 756 757 759 760 761 764 768 771 774 776
786 785 788 791 795 801 803 803 804 805 800 795 797 798 790 787 791 792 793 797 794 787 784 787 769 731 720 733 728 721 727 727 725 727 720 710 703 704 710 707 699 700 703 703 699 697 701 705 705 703 702 702 699 698 697 698 699 700 702 705 708 711 713 716 720 723 726 729 731 734 737 739 742 745 745 744 746 749 752 754 757 761 764 767 769 771
788 786 786 788 793 799 806 806 801 802 802 796 792 788 786 789 793 793 796 800 796 788 789 791 784 757 729 726 725 720 725 722 717 719 710 700 701 706 710 705 699 699 701 703 703 704 706 705 703 701 699 698 696 695 696 697 697 698 700 702 704 707 710 713 717 720 723 725 728 728 729 731 732 734 733 735 740 743 746 751 755 758 760 763 765 768
784 785 788 789 794 800 806 802 794 799 803 796 791 785 783 787 791 794 797 800 796 791 792 789 788 784 751 722 722 723 725 724 715 709 703 703 707 708 707 704 700 699 702 706 708 707 706 702 700 698 695 695 694 694 695 696 697 697 699 700 702 704 706 710 713 716 719 721 723 725 727 729 728 728 730 733 738 740 744 748 751 754 757 760 762 765
780 782 785 789 796 800 797 790 787 795 797 791 794 794 789 790 792 795 795 797 803 798 793 789 787 790 761 724 725 731 726 723 714 707 707 707 709 706 703 701 699 702 707 710 709 707 704 701 699 697 695 695 694 694 694 694 696 698 699 700 701 702 704 706 710 712 715 718 720 723 725 727 727 729 732 734 737 740 743 745 747 750 753 756 759 762
780 782 784 785 790 789 784 785 787 788 789 791 798 797 796 798 796 799 796 793 803 796 788 790 785 784 756 715 720 734 726 719 712 709 711 710 708 705 702 700 701 707 711 711 709 707 704 701 699 697 696 697 695 695 695 694 696 697 699 701 700 702 703 704 707 709 712 715 718 720 722 724 726 729 732 734 736 738 740 743 744 747 749 752 755 757
782 787 789 783 779 778 779 789 793 789 790 794 795 790 792 798 796 801 799 793 799 791 779 779 776 780 760 716 713 726 720 717 713 707 704 704 705 702 700 703 707 712 712 711 708 705 705 702 699 699 697 697 696 695 696 696 696 696 698 700 701 702 703 704 705 706 709 711 713 714 716 719 723 726 729 731 732 734 736 739 741 743 746 749 751 754
783 786 785 776 774 777 777 785 795 796 795 792 790 788 789 793 794 799 800 798 799 785 772 771 772 779 760 721 715 721 717 718 717 709 701 700 702 698 697 703 710 715 713 710 707 704 704 701 699 700 698 696 695 694 695 696 697 698 698 698 700 701 702 703 705 705 706 708 708 710 712 715 718 721 723 725 726 728 731 734 737 741 743 746 749 751
777 777 777 773 773 775 773 780 791 795 794 791 791 793 795 798 798 798 798 801 798 781 773 778 779 774 746 716 716 717 711 710 711 710 705 701 702 699 698 703 709 714 712 708 707 706 706 701 699 700 698 696 695 694 694 695 696 699 700 700 699 698 700 702 704 705 705 705 705 707 709 712 715 718 719 720 722 724 725 729 732 735 738 741 744 746
770 770 774 773 770 769 770 775 779 780 787 791 787 789 796 800 800 797 796 800 791 775 778 786 781 767 739 715 711 706 701 702 703 706 707 706 706 704 704 707 709 711 709 709 710 710 709 706 703 703 699 697 696 695 695 694 695 697 699 702 702 700 700 700 702 703 704 704 705 706 708 710 712 714 715 717 720 721 723 724 726 728 731 734 736 738
777 771 767 765 763 764 765 764 763 766 779 785 778 779 783 781 782 783 780 779 771 764 779 790 776 756 734 714 707 702 701 704 705 707 710 710 710 710 709 708 707 707 707 710 712 711 710 708 705 703 699 697 696 695 695 694 694 695 696 699 701 702 701 700 700 700 701 703 705 707 707 708 709 710 712 714 716 718 719 721 723 724 726 728 730 733
782 770 760 763 765 765 765 761 762 766 773 781 779 778 776 769 767 769 765 762 764 769 776 779 765 744 723 708 705 708 707 707 707 708 708 707 709 711 708 705 705 707 708 710 709 708 708 706 704 702 700 698 696 696 696 695 693 693 694 694 696 699 702 701 700 699 700 702 704 706 707 708 709 709 710 710 711 713 715 717 719 721 723 725 727 731
779 769 761 767 767 765 767 765 765 766 768 778 783 774 771 770 765 767 768 763 769 775 762 753 749 736 722 707 701 705 705 703 705 704 702 705 707 706 703 705 707 706 707 707 706 706 707 705 703 703 702 700 698 697 698 697 695 693 693 693 692 694 697 701 702 702 702 701 702 704 705 707 708 708 708 707 709 711 713 715 717 719 720 722 724 727
776 771 761 761 762 765 773 770 765 767 768 772 775 767 767 771 767 770 777 771 772 774 754 740 738 733 729 717 703 701 700 698 701 702 703 704 702 701 703 706 708 707 707 706 706 707 707 705 705 705 707 705 702 700 700 700 700 697 696 697 695 694 694 697 700 703 703 702 701 701 702 704 705 706 707 708 710 712 713 714 715 716 717 719 721 723
776 774 761 756 759 764 771 769 764 767 770 768 768 766 768 771 768 771 779 775 772 769 755 742 735 732 731 717 703 702 702 700 702 704 703 700 699 702 704 704 705 705 705 703 703 706 707 707 707 707 707 706 703 702 702 702 702 700 701 702 703 703 701 701 702 703 704 703 702 700 700 701 703 703 705 707 710 712 712 713 714 715 715 716 719 720
775 778 767 759 762 764 765 766 763 764 768 770 770 768 769 771 768 767 770 768 766 763 755 747 738 730 721 708 703 706 706 704 705 704 702 699 702 706 706 705 705 704 704 703 703 703 703 706 709 710 711 709 707 706 705 705 702 699 700 702 704 706 706 708 708 707 707 707 707 706 703 701 700 701 703 706 708 709 710 711 713 714 715 716 716 717
773 777 772 764 765 767 764 760 759 758 761 766 770 769 769 768 765 766 766 762 761 763 758 753 743 727 713 703 702 705 707 708 706 703 701 702 706 708 707 706 705 704 705 705 704 703 701 701 704 706 706 705 703 702 703 703 701 699 700 703 704 705 705 706 707 708 708 708 709 709 707 704 702 702 703 705 706 706 706 708 709 711 713 714 714 714
771 773 771 766 764 763 757 752 752 751 751 756 760 761 762 762 764 769 766 756 756 758 753 749 743 727 713 706 701 702 706 707 706 705 704 706 708 706 703 704 706 710 713 714 714 713 711 709 708 706 704 702 701 702 704 705 704 703 704 704 705 705 705 703 703 705 705 706 707 706 706 707 707 705 704 703 703 703 704 704 705 706 708 709 710 711
768 771 772 769 763 756 750 748 750 749 747 751 754 753 753 755 758 764 761 752 752 751 745 746 743 729 716 710 706 703 702 704 708 710 709 709 708 707 709 713 719 724 727 726 725 723 722 721 719 717 714 712 712 712 712 711 709 708 708 707 706 706 705 703 702 703 703 703 703 702 703 705 705 706 705 703 701 700 700 700 701 703 703 704 705 707
769 771 770 766 759 753 749 747 751 754 754 755 754 752 753 752 750 750 751 750 751 749 748 748 740 723 713 710 708 706 705 706 709 711 714 718 721 725 731 733 734 735 733 732 730 729 728 726 724 723 721 721 720 718 716 715 713 712 710 709 708 707 706 703 702 701 701 701 700 700 701 701 702 704 703 701 699 697 696 696 697 698 699 700 702 703
768 765 764 768 766 761 757 751 752 757 761 761 756 752 753 754 752 753 753 754 754 748 745 744 732 718 712 711 708 708 708 706 707 717 731 739 741 745 747 745 743 740 737 736 734 733 731 730 728 728 727 726 725 722 720 718 716 715 714 712 711 709 707 705 703 701 700 699 697 697 698 698 699 700 699 698 696 693 693 694 695 695 696 696 697 698
767 760 757 766 770 766 762 754 748 749 757 762 758 753 753 754 756 757 757 758 753 741 736 735 727 716 712 712 711 710 710 711 720 737 750 752 751 752 751 749 747 744 742 740 739 738 736 735 734 732 730 729 727 725 723 721 719 718 717 716 714 711 709 706 703 701 698 697 695 694 695 695 696 696 695 694 692 691 691 692 692 692 692 693 693 693
773 766 757 759 762 759 754 748 744 745 750 753 752 750 751 752 753 755 756 753 745 736 730 726 720 718 718 718 719 723 730 737 747 756 757 755 755 754 752 751 749 747 746 744 742 741 739 738 736 734 733 731 729 728 726 724 722 720 719 718 715 713 710 707 704 700 697 695 693 692 692 692 691 691 690 690 689 688 688 688 688 688 688 689 689 690
776 772 762 759 759 757 754 752 751 753 755 753 752 751 751 752 753 755 755 747 739 738 732 721 722 729 728 726 734 746 753 757 761 762 760 759 758 756 754 752 749 747 747 745 744 743 742 740 739 736 734 733 731 729 727 724 722 721 720 719 717 714 712 709 706 702 699 696 693 691 689 688 688 687 687 686 686 686 685 685 685 684 684 685 685 685
780 776 765 761 761 758 761 761 759 760 760 757 757 755 753 753 752 751 748 741 741 744 735 727 730 731 727 734 751 763 763 762 763 763 761 760 758 756 755 753 751 750 749 747 746 745 744 743 740 738 736 734 732 730 727 724 722 720 718 717 715 713 711 708 706 704 701 698 695 692 689 687 685 684 684 683 682 683 683 682 682 681 681 681 680 681
781 776 765 765 768 766 767 765 761 761 760 757 755 754 753 752 749 746 744 742 744 741 733 731 731 727 736 752 761 764 764 762 763 762 761 760 758 756 755 754 754 753 751 749 748 746 745 743 741 739 736 734 732 730 728 725 723 721 719 717 715 713 710 708 705 703 700 698 695 693 690 687 685 683 682 682 681 680 680 679 679 678 677 677 677 678
779 774 766 769 777 773 765 762 760 760 759 757 755 752 750 748 744 744 744 742 739 733 728 729 725 728 750 766 762 761 764 762 761 762 761 760 759 757 757 756 756 754 752 751 749 746 745 743 740 738 735 734 732 730 728 726 724 723 720 718 716 713 710 707 705 703 701 699 697 694 692 689 686 684 683 681 680 679 677 676 675 674 673 674 674 675
781 779 775 778 784 776 763 762 763 759 759 760 757 751 745 741 740 739 735 732 733 733 732 730 728 737 758 766 762 762 764 761 760 762 761 760 759 758 757 756 755 754 753 751 749 747 745 743 741 738 736 734 732 730 728 726 724 722 720 719 716 713 711 708 705 703 701 699 697 695 693 691 688 685 682 680 678 676 675 674 673 671 671 671 671 672
784 786 786 786 787 777 766 765 765 767 771 763 749 741 736 733 734 729 724 733 745 747 743 740 743 754 763 764 763 763 761 760 759 759 759 759 757 756 755 755 755 753 752 751 749 747 745 742 741 739 737 735 733 731 729 726 724 722 719 717 715 712 710 708 705 703 700 698 696 693 690 688 686 683 680 677 675 673 672 672 670 668 668 667 668 669
783 786 788 787 786 779 769 767 773 780 778 755 736 736 736 732 731 729 735 750 757 754 752 752 755 761 763 762 762 762 759 758 757 755 756 756 754 753 753 753 752 751 750 749 747 745 744 742 740 738 737 736 734 732 730 728 726 723 720 717 713 709 707 704 702 700 698 696 694 691 688 685 682 679 676 674 672 670 669 668 667 666 665 665 666 667
781 784 786 783 784 781 774 777 783 774 758 745 743 747 746 741 740 745 755 763 760 755 758 760 759 760 761 760 759 759 757 755 754 753 753 753 751 750 750 750 749 748 748 747 745 744 743 741 739 738 736 734 733 731 729 727 725 723 720 717 713 709 706 702 699 696 694 691 689 688 686 683 681 678 675 673 670 669 667 666 665 664 663 663 663 664
779 782 783 781 781 780 778 781 773 751 739 744 752 752 750 749 750 751 756 759 760 758 758 759 758 758 759 758 757 756 754 754 754 752 750 750 749 748 748 748 747 746 746 744 743 742 741 740 738 736 734 733 731 729 728 726 724 722 719 716 713 710 707 704 700 696 693 689 686 684 683 681 679 677 675 673 670 668 667 666 664 663 663 662 662 662
777 780 782 784 779 774 777 774 758 746 742 740 742 748 750 749 749 749 752 757 761 761 758 758 758 757 757 757 755 754 754 755 754 749 746 746 746 745 747 745 744 744 743 741 741 740 739 738 737 735 733 731 730 728 727 725 723 720 718 715 713 710 707 705 701 698 695 691 688 684 682 680 678 675 673 671 669 668 666 665 664 662 662 661 659 659
775 776 778 783 775 764 769 770 761 759 750 736 740 752 752 749 750 751 756 760 760 758 757 756 755 754 754 755 753 753 755 756 752 745 743 744 744 743 744 742 741 741 739 738 738 737 737 736 735 734 732 730 729 727 725 723 721 719 717 714 712 710 707 704 702 699 696 693 691 688 684 682 679 675 672 670 668 667 665 663 662 661 660 659 657 656
774 775 775 780 774 764 766 766 759 754 744 737 744 749 748 751 751 751 757 758 754 753 754 753 752 752 752 752 752 753 755 755 750 742 740 741 741 741 741 740 739 738 737 736 736 734 734 734 732 732 730 729 727 726 724 723 720 718 716 714 712 711 708 705 701 699 696 693 691 688 685 681 679 675 673 671 669 667 665 663 661 659 658 658 656 656
774 775 775 776 772 767 766 760 752 745 740 741 745 745 747 752 750 753 757 752 746 749 750 748 749 749 748 750 751 753 753 750 744 739 736 737 738 738 738 737 736 736 734 734 733 732 732 731 730 729 728 727 725 724 723 721 719 717 716 714 712 710 707 704 700 697 695 692 689 686 683 680 677 675 673 671 669 667 665 663 661 659 657 656 655 655
774 774 776 774 770 768 765 759 754 746 740 743 746 745 747 751 752 754 751 742 741 746 745 745 746 744 745 748 749 749 746 739 736 735 733 734 735 735 735 734 733 733 732 731 731 730 729 728 727 726 725 724 723 721 720 719 716 715 714 712 710 707 704 701 698 695 692 689 686 683 680 678 676 674 671 670 667 665 663 662 660 659 657 655 655 655
774 776 778 774 771 771 766 762 761 751 740 743 748 746 748 753 751 745 739 737 740 740 739 742 743 740 742 743 742 742 738 733 733 733 732 732 732 731 732 731 730 730 729 728 728 727 727 726 724 723 721 720 719 717 717 716 714 712 711 708 705 702 700 697 694 691 689 686 683 681 678 676 674 672 670 667 665 663 660 659 659 658 656 655 654 654
766 772 772 764 762 767 767 765 765 754 741 741 744 741 742 745 741 734 734 738 738 736 737 740 739 738 739 739 737 736 733 731 732 730 729 730 729 728 729 728 728 727 726 725 725 724 724 723 721 720 718 716 715 715 714 713 711 708 706 703 700 698 696 693 691 688 685 682 680 678 676 674 672 670 667 665 663 661 658 656 656 655 654 654 653 652
762 766 768 760 754 759 763 759 751 744 739 740 741 738 737 736 734 734 737 736 734 735 736 735 735 735 735 734 733 732 730 730 729 727 727 727 726 726 726 725 725 725 723 723 722 722 722 721 718 717 715 713 712 712 711 710 708 704 701 698 697 696 693 690 688 686 682 679 677 674 672 670 668 666 665 663 660 658 655 652 652 652 651 651 650 650
758 757 761 758 750 751 753 746 738 738 740 741 741 739 736 734 732 734 735 734 732 733 732 732 733 731 730 731 730 728 727 727 725 725 725 724 723 723 723 722 722 722 721 721 720 719 719 718 716 714 711 709 708 708 708 707 705 701 696 694 694 693 690 687 685 682 679 676 673 670 668 666 663 661 660 659 657 655 651 649 648 648 648 648 648 647
754 754 758 757 751 748 746 739 736 740 740 737 736 735 734 732 730 730 732 732 731 730 729 730 730 727 727 728 727 726 725 723 722 723 723 723 723 722 721 720 720 719 719 718 717 717 716 715 713 711 708 705 703 704 704 703 702 698 694 692 692 691 687 685 682 678 675 672 669 666 664 661 658 656 655 654 653 650 647 645 645 644 644 645 644 643
754 755 757 754 751 751 746 737 735 738 737 734 734 732 730 729 729 729 730 730 729 728 727 727 726 725 725 725 724 724 722 721 723 723 723 723 723 721 720 719 718 717 716 715 714 714 713 711 709 707 705 701 698 698 699 698 696 694 692 691 690 688 685 682 679 675 672 668 665 663 661 658 655 652 650 649 648 645 642 640 640 640 640 640 639 638
753 753 755 752 749 748 742 733 731 735 734 733 734 732 728 727 727 727 729 728 727 727 725 724 724 723 722 723 724 724 723 723 725 725 724 724 722 720 719 718 717 715 713 711 711 711 710 708 706 703 701 698 693 693 694 692 690 689 689 688 688 686 683 680 676 673 669 664 662 660 658 656 654 650 647 645 643 641 638 635 635 635 633 633 633 631
749 751 752 750 747 743 736 731 731 734 733 730 729 728 727 726 726 726 726 725 725 725 723 723 724 724 724 725 726 726 726 725 725 727 727 724 721 720 719 717 715 713 710 708 708 708 707 705 702 701 698 694 690 690 689 686 685 685 685 685 684 683 681 676 672 669 665 660 658 656 653 652 650 647 644 640 637 634 631 629 629 628 626 625 625 624
749 748 747 749 750 743 734 729 730 732 731 726 723 722 724 725 725 724 724 723 724 725 725 725 725 725 726 727 727 728 728 727 726 727 726 723 721 719 717 715 714 711 707 706 706 705 704 702 700 698 695 690 688 687 685 681 679 679 681 682 681 680 678 674 669 665 659 656 653 650 648 647 644 641 639 635 631 628 625 623 623 622 620 618 618 618
743 741 740 742 742 734 726 723 725 728 727 723 720 720 724 727 727 725 726 727 728 728 729 729 728 727 727 728 729 729 729 727 726 726 725 722 719 717 715 714 712 708 705 704 703 701 700 697 696 694 691 687 685 683 681 678 674 673 675 677 676 675 673 670 666 660 654 651 648 646 645 643 638 635 633 630 627 624 621 618 616 615 614 613 613 613
Wind_Speed
3 3 4 6 10 14 14 12 15 14 7 5 3 5 7 8 9 9 12 10 2 4 8 11 20 18 15 15 12 15 15 11 15 19 19 16 13 13 13 15 17 17 18 18 22 25 21 20 20 21 24 25 27 30 33 35 37 40 40 39 41 41 41 41 41 42 42 42 41 39 41 43 43 43 44 45 47 48 48 48 48 47 47 46 46 44
2 6 8 12 15 13 8 9 11 9 4 4 4 7 7 7 12 12 11 13 2 1 7 8 18 20 13 14 13 13 16 16 17 17 18 20 18 14 13 17 19 16 15 14 15 17 15 15 17 19 22 23 26 29 32 36 38 39 39 40 41 40 41 43 44 44 45 46 46 44 45 46 44 44 46 48 49 50 49 48 48 48 48 47 46 45
2 7 11 14 11 4 1 4 5 5 6 7 4 5 7 5 9 11 8 10 3 1 7 7 15 18 11 14 16 16 17 17 17 13 14 20 19 17 16 16 16 15 15 13 11 11 10 13 16 18 21 24 26 28 31 35 36 36 38 40 39 39 42 44 45 45 45 45 43 41 40 40 39 40 44 45 46 48 47 47 47 47 47 47 46 45
5 7 12 14 8 4 5 3 5 3 5 6 5 5 8 4 5 8 4 5 4 3 7 9 15 15 10 14 15 18 19 15 14 14 13 15 17 21 20 14 12 14 16 15 13 11 9 10 12 14 18 22 25 27 29 32 34 35 38 39 39 39 42 43 44 44 42 39 38 35 32 32 32 33 36 37 39 43 45 45 46 47 47 47 46 45
11 8 6 7 7 9 9 4 4 4 6 7 8 7 10 10 9 10 5 7 6 5 5 7 14 13 6 9 10 10 11 10 11 13 13 14 19 21 17 13 14 13 13 14 16 15 10 6 8 11 15 18 22 26 29 31 34 35 37 38 38 38 39 40 42 41 39 36 35 32 26 25 27 26 28 32 35 38 41 43 46 47 47 47 47 47
12 6 3 4 5 7 7 7 6 7 8 8 7 11 16 15 11 10 7 7 6 5 4 4 8 11 2 6 7 6 3 6 8 8 14 18 18 13 9 13 16 11 9 10 14 14 9 7 9 12 14 17 21 27 29 31 33 34 35 35 36 37 37 38 38 39 38 37 37 36 31 29 28 27 31 38 39 40 42 45 46 47 47 48 48 48
6 4 4 6 6 6 6 6 7 9 7 9 5 11 15 12 9 10 7 3 2 4 3 3 1 9 7 3 9 7 3 7 8 9 16 18 12 6 6 11 14 11 7 7 9 9 9 7 8 11 15 18 23 26 27 28 30 31 32 34 35 37 37 37 38 39 40 39 39 40 39 37 36 34 37 42 42 43 46 45 44 46 46 47 48 47
3 2 3 5 4 6 5 6 7 10 6 7 5 7 9 9 8 6 4 4 4 4 3 1 4 6 13 6 5 5 4 7 12 14 16 12 7 8 9 11 13 11 8 7 8 9 8 9 8 11 17 19 22 24 23 24 27 29 30 32 34 36 37 37 38 40 42 42 41 41 39 38 39 38 37 37 38 40 42 42 42 44 45 46 47 47
4 4 5 6 5 4 6 5 7 12 7 6 2 4 6 5 5 5 5 4 1 4 4 3 4 2 12 7 4 3 3 7 13 15 13 8 7 9 11 12 12 8 7 7 7 9 9 9 9 13 17 18 19 20 19 20 22 25 28 30 32 35 36 37 38 40 42 42 41 41 39 37 37 35 31 31 33 35 37 39 40 41 43 45 46 47
1 3 6 8 6 6 7 3 7 12 7 4 4 5 4 3 3 5 4 3 3 4 5 5 5 2 11 9 4 4 2 7 10 10 9 8 8 10 10 11 9 7 7 7 7 8 9 11 13 13 14 15 15 15 14 15 17 21 25 27 30 33 34 36 38 40 42 42 41 40 40 37 35 31 28 27 30 33 34 36 37 39 41 43 45 46
2 0 3 5 4 6 4 3 4 8 5 2 5 5 5 4 4 4 1 3 3 6 5 10 11 5 7 8 3 3 4 5 6 7 7 7 7 9 8 7 6 7 7 7 8 8 10 13 14 13 12 12 12 11 10 11 14 18 22 25 28 30 32 35 37 40 42 43 43 42 42 40 37 33 31 29 30 33 34 35 37 38 40 41 44 45
2 1 2 3 3 5 6 3 0 2 4 4 4 3 3 4 4 4 4 3 2 7 5 10 12 9 7 7 1 4 6 5 6 6 7 8 8 8 8 5 5 6 5 6 7 9 10 12 13 13 13 14 13 11 8 8 11 15 19 24 27 29 32 34 36 40 42 43 44 44 42 42 39 36 35 35 35 36 37 37 37 37 37 39 40 43
3 5 4 2 2 5 6 2 2 3 4 4 3 2 1 4 3 2 3 0 4 7 5 6 7 5 11 9 4 9 12 10 9 8 8 8 8 9 10 8 5 4 5 6 7 8 9 10 11 11 13 15 15 13 9 8 9 13 17 21 26 30 31 33 35 38 40 43 44 44 42 41 39 37 38 39 37 38 39 39 38 38 38 38 40 43
4 4 3 2 3 4 8 6 3 2 5 6 5 5 4 2 2 3 3 2 4 6 3 3 3 3 9 7 7 12 13 10 6 7 8 8 8 9 9 8 6 5 6 6 6 7 7 8 8 8 12 15 15 14 11 9 10 12 16 19 23 27 30 32 35 37 39 42 42 42 42 41 39 39 39 39 38 38 39 39 40 41 42 42 45 47
4 7 3 5 2 5 10 9 4 4 5 6 5 5 5 5 4 4 4 4 6 4 2 1 3 4 4 3 6 10 8 7 4 5 6 5 7 7 7 7 6 6 6 5 5 5 6 7 7 9 13 15 15 14 11 10 11 14 16 19 22 25 27 31 35 37 39 40 39 39 40 40 40 40 39 39 40 39 40 40 41 41 43 44 46 47
4 8 5 2 1 7 8 4 3 6 2 2 3 3 3 4 4 3 5 5 3 3 2 2 4 5 4 6 7 6 7 8 7 6 6 6 6 4 5 6 5 5 5 5 5 5 7 7 7 9 13 16 16 14 12 12 12 15 18 21 24 26 27 30 34 36 37 37 37 37 39 39 39 39 40 41 41 41 41 41 41 42 43 44 43 44
3 6 3 2 1 5 5 1 2 3 2 1 3 2 4 3 5 2 5 2 0 4 6 5 7 6 5 10 7 3 3 6 6 6 5 6 5 3 4 6 5 7 6 6 6 7 7 7 7 10 14 18 19 18 17 15 14 15 19 22 25 27 28 29 31 33 34 35 36 37 38 38 38 39 40 41 41 40 40 39 40 41 42 42 42 42
3 5 5 3 2 3 4 3 1 1 4 4 3 4 2 1 2 2 2 1 2 8 7 7 13 10 6 8 5 6 8 8 7 7 6 6 6 5 5 6 6 7 7 6 6 6 7 7 7 10 15 19 22 23 22 20 17 16 18 21 24 26 28 30 30 32 33 35 36 38 39 40 40 40 41 39 37 36 37 38 40 41 41 42 42 42
1 4 7 4 4 3 1 2 1 2 2 4 3 2 1 2 3 1 2 2 5 9 5 6 13 10 7 10 9 8 10 8 7 7 6 6 6 6 7 8 7 7 7 8 7 6 5 5 9 15 20 22 25 26 25 23 19 16 16 19 21 22 24 25 27 30 32 34 36 38 39 39 40 41 41 39 35 33 35 37 38 39 40 41 40 41
1 3 5 1 3 1 3 1 3 3 1 1 1 1 1 3 3 2 2 2 3 7 7 7 9 7 7 10 11 8 6 5 8 6 5 6 6 6 7 7 8 8 8 9 8 8 9 10 12 16 18 20 23 25 25 24 22 19 18 18 19 22 22 22 23 25 29 32 33 33 34 37 40 40 39 37 36 35 36 37 37 37 38 39 40 41
2 4 5 1 0 1 1 4 6 5 3 2 1 2 2 2 1 1 2 2 3 6 7 7 9 7 4 5 10 8 5 4 7 6 7 7 7 7 7 6 7 8 10 12 12 14 16 16 17 22 24 25 28 31 32 31 28 26 22 20 19 21 22 22 23 24 26 28 29 30 33 34 35 36 36 35 36 37 38 38 38 39 39 39 40 40
2 4 5 3 4 5 6 6 7 8 7 6 4 5 5 4 3 4 6 5 5 6 6 8 10 7 3 6 11 11 7 7 7 6 6 7 9 10 9 9 10 12 14 14 14 15 15 15 19 26 31 34 35 35 36 35 33 31 27 24 22 22 22 22 24 25 27 28 29 32 33 33 32 32 33 35 36 37 38 39 40 41 40 41 42 41
2 2 4 6 7 9 11 8 7 9 6 3 4 5 5 6 5 7 10 6 5 6 6 8 9 5 5 9 13 15 15 11 5 4 5 8 9 11 12 13 14 13 12 12 12 12 11 12 17 23 27 30 31 31 32 32 33 33 31 28 25 23 24 23 23 25 28 29 31 33 33 33 33 32 32 34 36 38 40 42 42 41 42 43 42 42
2 2 3 6 6 7 10 9 4 3 2 2 4 4 6 7 8 10 8 4 5 8 6 8 10 5 6 10 12 12 13 10 4 3 6 7 7 10 13 14 13 12 12 12 11 10 9 12 16 19 21 23 25 27 29 30 31 33 34 33 30 27 27 25 23 23 24 27 30 32 32 34 34 34 35 36 37 40 42 43 42 42 43 43 41 41
2 3 3 3 5 5 7 7 4 1 1 3 5 6 7 8 10 10 6 3 6 9 11 12 11 5 3 5 7 7 9 10 8 8 12 11 10 11 10 11 11 11 12 13 13 12 12 13 14 13 15 19 22 25 27 28 30 31 32 34 33 32 31 30 27 25 24 25 28 30 32 34 34 34 36 38 40 42 42 42 41 41 42 41 41 41
3 3 4 3 6 8 8 7 4 2 2 2 3 6 8 9 11 9 6 6 8 10 12 12 11 9 5 5 7 9 11 12 11 13 13 10 10 10 9 9 9 10 12 13 13 13 12 12 12 12 16 19 21 24 25 26 27 28 29 32 34 34 34 33 32 29 26 24 25 27 29 31 32 34 37 39 42 42 41 40 40 40 41 41 41 41
1 2 6 9 10 10 11 10 6 4 4 4 5 7 7 7 9 8 6 8 10 10 12 13 13 12 7 6 8 9 11 11 11 11 9 9 10 10 8 9 9 9 10 10 11 12 12 12 12 13 17 20 22 24 24 24 25 26 27 29 33 34 34 35 36 34 31 29 26 25 26 28 30 33 36 39 41 41 40 39 39 40 41 41 41 41
1 2 5 11 14 13 14 15 12 12 12 11 11 11 10 10 9 9 10 12 11 11 11 10 9 11 9 7 7 8 9 8 8 8 8 8 8 8 8 10 12 12 11 11 12 13 13 13 12 13 16 20 22 24 25 25 25 25 26 27 30 32 32 33 34 34 34 32 30 29 29 30 30 31 34 37 38 38 38 38 39 40 40 40 41 42
1 4 5 10 13 10 10 13 12 11 11 10 11 12 12 14 14 15 17 16 13 11 11 9 11 15 13 7 4 7 6 5 6 6 6 6 7 8 9 10 12 12 12 12 13 12 12 12 11 12 15 19 22 24 26 27 28 28 28 29 31 32 33 33 31 31 31 30 29 30 31 31 31 31 33 35 36 37 37 38 38 38 38 40 41 42
2 4 4 7 9 7 9 11 11 11 12 11 10 10 10 13 17 18 17 15 14 15 15 15 18 17 8 3 5 5 3 2 3 3 4 7 8 8 9 10 10 10 11 11 11 11 11 11 11 11 14 18 21 23 24 25 27 28 29 31 32 33 34 34 32 31 31 31 31 31 31 30 30 30 31 33 35 36 37 37 37 37 38 39 40 40
4 3 4 5 6 8 12 12 12 12 12 12 12 11 13 17 18 16 13 13 15 18 17 16 17 11 1 5 3 3 3 2 2 4 5 6 7 7 8 9 8 8 9 9 10 10 10 10 11 11 13 17 21 23 23 24 25 25 27 29 31 33 34 34 33 31 30 30 31 32 31 30 28 27 28 30 32 35 36 36 36 36 36 37 37 37
3 3 5 6 6 9 12 13 13 12 11 12 13 15 18 19 15 14 13 12 12 11 11 12 10 4 2 3 2 2 2 3 4 4 3 3 4 6 7 8 8 7 6 7 7 9 10 10 10 10 12 17 22 24 25 27 26 26 27 28 29 30 31 31 32 32 30 30 31 32 31 30 29 26 25 25 27 30 32 33 33 33 33 34 35 36
3 3 4 5 5 7 12 13 9 8 9 11 11 12 16 17 15 17 14 7 3 3 5 5 3 1 1 2 3 2 3 4 3 2 0 1 1 3 5 6 7 6 6 6 6 7 8 9 9 11 13 17 20 22 25 27 27 27 29 31 31 30 28 28 29 29 30 31 32 34 34 34 33 31 28 26 25 26 27 29 30 31 31 33 34 34
5 5 5 5 4 8 13 10 7 6 9 10 6 3 6 9 11 12 7 1 2 1 2 2 3 2 2 2 2 3 3 3 3 4 2 2 1 3 5 5 5 6 6 6 6 7 7 8 11 14 16 18 19 21 24 25 25 27 30 31 33 32 31 30 30 29 29 30 32 34 36 38 38 37 36 32 28 25 24 26 28 29 30 31 31 32
8 8 6 4 4 7 8 6 7 10 8 4 2 1 1 1 3 3 2 2 2 4 6 5 3 3 2 3 3 3 5 5 5 6 5 3 1 3 6 6 6 7 7 7 7 7 7 9 12 14 16 18 20 21 23 23 25 28 30 30 31 32 32 33 33 32 31 32 33 34 35 37 37 38 38 37 32 27 24 24 26 28 29 29 30 32
10 8 4 3 4 4 2 4 8 7 2 0 1 1 2 4 6 5 2 2 3 3 4 3 2 3 4 5 5 5 6 5 5 6 6 5 3 1 4 5 6 6 6 6 7 7 8 11 13 14 16 18 20 21 22 23 25 28 29 28 28 29 30 31 31 32 33 34 36 37 37 37 37 37 37 37 34 30 27 25 25 26 27 28 29 31
9 7 4 3 5 4 3 6 7 7 7 5 4 1 1 3 3 2 1 3 3 2 3 4 4 5 5 5 6 6 5 4 4 4 5 6 4 4 5 6 7 7 7 9 10 11 12 13 14 15 17 18 19 20 21 24 26 27 28 27 27 28 29 28 27 28 30 32 34 37 38 39 38 37 37 36 34 32 30 28 26 26 25 25 27 28
10 8 6 4 5 5 5 5 5 7 8 4 3 4 4 3 4 3 0 1 3 2 4 6 6 7 6 6 7 5 2 3 5 4 4 6 5 6 6 7 8 9 10 12 12 13 13 14 14 15 16 16 18 20 21 24 27 26 25 26 26 27 27 26 26 27 28 30 32 34 36 36 36 36 36 36 35 34 33 31 28 27 25 25 27 28
7 7 7 5 4 5 7 6 5 7 5 2 4 7 4 3 4 2 2 1 2 2 5 7 8 8 7 7 7 3 2 3 5 5 5 6 6 5 5 6 7 10 13 13 13 13 13 13 14 15 15 15 17 19 21 24 25 24 23 25 25 25 25 25 27 29 30 31 32 33 34 34 34 34 34 35 35 35 34 33 31 28 26 25 27 28
2 3 5 6 6 7 9 7 4 4 3 3 6 5 2 3 4 2 5 3 3 3 5 7 8 9 7 7 6 4 4 5 5 6 6 5 4 5 6 7 7 8 11 12 13 14 14 14 14 13 13 14 16 18 21 22 22 21 21 24 24 23 23 25 27 29 31 32 33 33 33 33 33 33 33 33 34 35 34 33 32 29 27 26 27 28
1 1 3 4 6 8 9 7 4 4 3 4 5 5 3 3 4 2 7 3 3 5 6 8 8 9 8 7 5 5 7 8 7 8 7 5 5 6 7 10 11 11 13 14 14 13 12 14 14 14 14 16 17 19 20 20 20 20 21 22 22 22 24 27 28 30 31 33 34 32 31 31 31 33 33 33 33 34 34 34 32 30 28 27 27 27
2 1 1 3 4 5 6 6 6 5 3 4 4 4 3 3 1 5 5 3 4 6 6 7 9 9 8 8 7 7 9 9 8 8 7 7 8 7 7 9 10 12 14 16 15 13 13 15 16 16 18 19 19 20 20 19 19 21 21 21 22 24 27 29 30 31 33 33 32 30 29 30 32 33 34 34 33 32 34 34 32 30 28 27 27 27
3 2 3 3 3 3 3 5 5 5 1 4 2 2 2 4 4 5 3 2 5 6 5 6 7 7 8 9 9 10 10 10 9 9 8 8 8 8 8 8 8 10 12 15 16 15 14 15 17 19 22 23 22 22 20 18 20 21 21 22 24 26 27 30 31 33 33 32 29 29 30 31 33 33 33 34 33 32 33 33 32 30 28 27 26 26
4 4 4 4 3 4 4 5 5 4 3 3 3 2 4 5 5 4 5 6 5 5 5 5 6 7 9 9 10 11 10 10 10 9 8 8 8 8 8 7 8 11 12 14 16 16 15 16 18 21 25 27 26 24 21 20 21 22 23 24 24 25 27 30 32 32 32 31 31 33 35 35 36 36 35 35 34 32 31 32 31 29 28 27 26 25
4 5 4 4 5 4 5 6 6 3 3 4 4 5 8 10 10 8 6 6 6 5 5 5 6 8 9 9 10 10 9 9 10 9 8 8 7 8 8 9 10 13 14 16 18 18 16 17 19 21 26 31 31 26 22 21 20 23 27 27 25 26 29 30 30 29 31 33 36 39 40 39 40 39 36 35 33 31 31 30 29 28 28 27 25 24
4 3 2 3 7 7 7 9 10 6 7 9 9 9 11 11 12 9 6 5 6 6 5 5 7 9 9 8 8 8 9 9 9 8 7 6 7 8 9 10 12 14 15 16 19 20 19 19 20 21 23 30 34 29 25 24 23 25 29 30 28 28 29 29 29 30 32 36 40 41 41 40 40 39 37 34 32 31 31 29 28 28 28 26 25 25
5 5 4 6 9 9 9 11 10 8 10 11 10 11 12 11 10 7 5 5 6 7 8 8 8 9 8 7 8 9 9 8 7 7 7 6 8 10 9 9 11 14 16 17 19 20 20 19 20 21 21 27 33 32 28 29 29 29 31 31 30 29 29 30 31 32 35 37 39 39 39 38 37 37 36 34 31 30 30 30 29 28 27 26 25 24
4 4 5 9 11 10 12 14 12 9 10 10 9 10 12 12 11 7 5 6 7 8 9 9 8 7 6 5 5 5 6 6 5 6 7 6 8 9 9 9 11 14 19 22 21 20 20 20 21 21 22 27 32 33 30 31 33 33 32 31 30 29 31 33 33 32 35 38 39 38 37 36 34 34 35 34 31 29 28 28 28 28 30 31 29 26
3 2 4 5 7 9 13 14 12 10 11 11 12 11 10 9 9 8 7 8 8 8 9 7 4 2 1 1 1 1 5 7 5 4 6 8 9 9 9 11 14 18 22 24 23 21 20 21 22 23 25 29 33 32 32 33 36 35 32 31 31 30 31 33 34 34 36 39 38 36 35 33 31 32 33 34 33 31 30 31 30 30 33 35 36 35
4 6 6 4 5 9 12 12 10 9 9 10 12 12 7 5 6 7 7 6 5 5 5 5 5 3 2 3 3 2 5 7 6 6 7 8 10 10 12 14 17 21 23 24 23 22 22 23 24 24 27 32 33 33 34 37 39 39 34 31 31 30 30 32 33 34 36 36 35 34 33 31 30 32 33 32 30 29 30 32 33 34 35 36 37 38
7 9 9 7 9 12 13 13 11 8 8 10 12 9 3 2 3 4 3 4 4 4 4 5 5 5 4 3 3 3 5 7 8 8 8 10 13 16 17 17 18 20 24 24 23 22 24 26 26 26 28 32 34 34 36 39 43 43 37 32 31 31 31 32 32 31 32 34 34 34 33 32 32 33 32 30 28 26 27 29 30 32 34 35 35 35
Wind_Direction
135 164 183 192 208 222 222 203 213 230 240 257 261 260 259 269 269 256 266 267 223 284 261 249 268 272 269 270 265 271 277 268 267 274 276 274 268 261 259 262 263 257 255 260 266 268 267 262 256 253 251 246 242 237 233 229 226 224 221 218 217 214 211 208 204 203 201 201 202 203 207 210 212 212 212 214 216 217 218 219 218 218 218 218 218 217
133 199 215 214 216 225 225 208 223 245 283 280 252 268 265 251 267 266 269 276 253 252 257 242 270 273 266 270 267 264 270 265 257 259 273 279 274 268 262 261 262 263 265 270 272 272 268 263 255 248 244 237 234 232 228 227 225 223 219 218 217 212 208 207 206 203 202 203 202 202 206 209 209 210 211 212 215 216 217 218 218 217 217 217 218 217
219 227 232 229 230 271 321 168 195 229 241 252 244 273 274 250 276 276 262 282 305 209 274 278 274 274 264 257 255 252 252 254 256 250 255 269 277 276 265 260 265 272 278 277 274 275 264 254 249 241 236 233 233 234 230 227 225 220 218 217 215 211 208 208 207 205 205 206 205 205 208 208 208 210 212 212 214 215 216 217 217 217 217 217 217 217
225 238 235 232 230 252 261 162 132 220 240 231 218 245 266 252 271 269 263 324 332 238 272 293 284 279 260 246 244 246 248 252 263 258 247 255 266 266 264 268 274 272 278 285 284 280 263 250 249 238 234 235 233 232 229 226 222 218 217 216 213 211 209 207 206 206 206 205 204 207 210 209 208 212 213 213 215 215 215 216 216 216 216 217 217 218
235 238 224 216 205 211 239 232 176 243 261 228 207 219 252 251 243 252 287 344 328 290 299 311 298 289 233 217 238 247 254 255 258 260 260 256 250 255 271 284 275 265 272 284 284 282 282 280 276 259 248 242 234 231 229 227 224 221 219 216 213 212 210 208 206 204 202 201 200 200 203 204 205 209 209 210 214 214 214 215 215 215 216 217 218 218
247 236 148 153 191 192 213 237 212 212 252 257 214 209 235 250 253 260 296 347 342 312 338 20 319 297 200 160 232 262 274 256 253 250 251 252 250 256 281 280 275 271 262 265 275 290 318 335 306 280 262 247 239 238 236 232 229 224 220 216 213 211 209 208 205 202 200 198 196 194 193 192 193 198 204 208 210 210 212 214 215 215 216 216 217 218
255 229 187 197 195 166 183 248 225 193 238 277 235 207 226 244 256 261 276 319 294 260 289 70 52 287 291 193 222 238 232 250 256 242 240 247 260 280 276 270 279 284 278 279 290 314 336 322 297 278 264 251 247 250 247 238 232 226 221 216 212 210 209 207 204 202 199 198 198 198 197 197 196 199 206 210 210 210 212 213 215 215 216 215 216 217
203 194 210 210 168 142 179 251 218 174 200 271 245 199 208 223 234 230 210 209 236 278 298 158 143 275 289 272 202 195 190 247 255 245 246 258 284 287 272 268 274 284 309 332 327 330 319 293 278 270 269 262 259 261 255 243 235 228 222 217 212 209 208 206 203 201 200 200 200 201 203 204 205 207 210 210 209 211 211 211 213 214 215 215 215 217
147 183 201 169 123 150 203 226 175 156 188 255 228 158 174 196 203 153 154 196 244 336 303 218 143 240 277 281 71 98 185 242 254 252 265 292 295 277 271 272 278 303 351 10 348 325 310 299 292 283 284 283 276 271 261 249 241 231 224 218 213 209 206 204 202 201 201 202 202 203 204 208 211 212 213 211 208 209 209 209 211 213 214 214 215 216
158 210 190 150 140 200 211 196 162 163 197 229 113 91 74 75 79 103 140 142 79 312 260 196 160 202 276 280 70 73 221 238 256 265 279 287 274 267 269 277 299 351 12 6 344 317 307 309 308 305 303 300 295 288 273 256 243 232 224 217 212 209 206 204 202 202 202 203 203 205 206 209 211 211 211 211 208 208 208 208 209 211 212 213 214 214
248 99 148 159 178 191 159 112 174 172 175 145 97 58 27 29 33 53 70 93 85 278 236 181 182 179 280 288 124 162 218 214 255 287 292 289 283 277 275 288 341 23 11 342 326 317 319 320 329 339 332 321 317 309 290 265 244 230 221 215 213 210 208 206 204 203 204 203 205 207 208 209 210 208 206 205 204 205 206 206 208 210 211 212 213 213
259 177 208 226 188 145 124 113 339 113 132 124 88 63 5 329 6 28 353 52 152 261 238 184 183 175 236 267 189 239 244 210 230 271 286 294 300 293 291 314 37 43 339 315 325 332 332 333 350 1 349 337 327 315 298 268 247 233 221 214 212 211 210 208 206 205 205 205 207 209 210 210 210 207 205 205 204 204 204 206 207 208 209 211 212 213
267 215 212 238 204 159 140 145 340 22 119 129 114 121 297 310 344 351 313 83 202 258 262 192 176 195 243 257 271 270 272 258 234 226 242 265 283 291 302 322 16 21 318 325 343 340 335 337 351 356 347 341 330 317 300 266 244 235 229 220 215 213 210 209 209 208 208 208 209 210 210 211 211 209 209 209 208 206 206 206 205 205 207 208 210 212
284 259 178 155 251 184 154 175 237 228 165 159 158 160 170 200 257 263 260 266 258 272 286 207 176 255 274 277 246 245 262 272 246 220 232 250 269 282 296 309 327 334 332 346 339 324 323 325 329 330 333 335 328 316 296 266 242 230 229 227 225 221 214 211 211 211 211 212 213 212 212 212 211 212 213 213 212 211 210 208 207 207 207 208 211 213
257 281 209 171 244 183 178 198 193 140 158 178 164 146 170 185 190 224 233 251 266 277 310 248 191 221 266 276 233 234 264 299 285 260 270 267 264 280 293 300 320 332 333 334 311 299 297 299 309 319 326 329 326 316 295 268 246 231 226 227 231 231 223 216 214 213 214 215 216 216 216 215 214 214 215 216 216 215 214 212 211 211 211 212 214 215
228 268 256 228 225 162 185 239 95 103 146 211 128 112 216 202 176 238 257 243 255 293 289 237 226 226 248 278 272 260 276 293 299 308 314 290 277 303 307 303 320 316 308 313 319 323 314 309 313 314 321 329 331 322 298 274 253 238 230 226 228 233 232 226 220 218 217 217 218 219 220 219 218 217 217 218 219 218 218 217 215 215 215 216 216 217
244 273 290 5 351 167 178 293 70 132 204 168 118 192 227 175 144 236 281 287 109 263 253 238 256 275 292 289 303 11 327 311 324 331 322 298 309 1 324 310 318 311 311 318 327 330 318 309 310 320 335 341 340 332 313 295 277 257 243 234 229 229 232 233 229 225 222 220 220 222 222 222 222 222 222 222 221 220 220 220 219 219 219 218 218 218
246 277 267 179 215 234 171 141 72 148 155 140 174 223 222 143 128 151 264 309 246 250 249 240 256 275 291 279 313 13 338 325 330 328 329 325 345 1 322 305 299 295 303 308 304 294 287 294 323 353 1 356 349 341 330 317 301 283 266 253 243 235 231 232 233 232 229 226 224 224 224 224 225 225 227 227 226 225 223 222 222 221 221 220 219 219
211 276 273 185 178 267 61 106 297 298 147 153 211 238 108 219 243 149 174 236 244 250 250 229 246 260 257 260 279 298 296 306 323 325 320 311 320 326 315 316 318 313 317 324 317 300 309 347 17 19 11 5 2 357 350 340 325 311 296 280 270 263 253 245 241 238 237 234 231 229 227 227 228 229 229 229 230 230 228 227 226 224 223 222 221 219
127 229 268 140 139 317 21 112 216 251 256 117 264 311 102 187 206 189 185 196 244 257 260 244 240 242 238 258 276 265 246 291 314 306 281 275 285 300 311 320 325 326 332 339 339 343 3 24 36 31 19 14 15 13 8 0 352 345 330 307 290 283 279 272 263 256 250 246 243 240 236 233 232 232 232 231 231 232 233 232 230 228 227 225 223 221
136 219 248 268 132 248 267 221 197 196 196 151 181 237 224 210 214 264 237 178 240 258 260 255 246 237 235 269 278 257 208 247 284 271 259 275 296 304 305 301 308 332 350 360 5 6 10 15 17 18 17 19 20 18 15 11 8 5 352 333 311 295 287 281 274 269 264 259 256 254 250 245 240 237 236 235 234 234 234 234 233 232 231 229 227 223
180 223 242 260 262 248 240 219 186 184 178 164 187 206 213 224 246 276 256 210 212 240 246 256 256 246 250 285 287 281 267 262 256 245 272 309 322 322 326 335 349 5 10 12 15 15 14 12 7 7 10 14 15 14 12 10 10 9 1 351 336 315 301 290 280 272 268 265 263 260 258 257 253 248 243 239 237 237 236 236 235 233 231 230 229 226
159 170 224 239 245 251 255 241 199 192 185 175 216 212 211 212 207 240 253 240 235 250 256 264 263 242 220 255 272 276 281 285 253 225 294 317 322 333 347 359 11 19 18 16 20 22 20 15 10 10 11 12 12 10 9 9 10 9 5 1 353 338 326 316 301 286 276 270 266 263 262 262 260 256 251 245 241 240 238 237 236 234 232 231 229 227
133 144 230 249 250 261 270 270 244 179 172 256 254 222 212 222 227 240 252 265 261 257 260 264 262 238 204 236 255 267 283 297 281 275 333 346 354 5 10 12 16 16 14 15 19 20 17 16 16 15 12 10 8 9 9 9 9 9 6 3 360 353 346 340 329 312 296 283 276 271 267 265 262 259 254 250 246 244 242 239 237 234 233 231 229 227
239 198 209 273 279 278 285 288 302 354 165 230 249 241 231 235 249 263 275 285 264 247 245 256 262 256 235 261 279 290 296 300 314 3 31 36 32 27 21 15 13 11 13 13 12 14 15 15 16 14 11 8 7 7 8 8 8 7 4 2 359 357 353 351 346 334 320 304 290 281 273 268 264 260 256 253 251 249 246 242 238 236 234 231 229 227
251 225 209 243 259 260 267 262 251 228 174 182 241 245 239 231 234 248 260 253 250 240 236 249 263 263 276 322 315 308 310 318 349 28 41 37 31 29 21 16 14 14 14 12 9 12 12 12 12 9 8 8 6 6 5 6 7 5 2 360 358 356 354 353 352 345 335 321 302 288 279 271 266 262 259 257 256 253 250 244 240 237 235 232 230 228
257 249 236 240 246 253 263 263 265 278 266 264 265 249 245 240 228 230 242 243 252 257 245 248 265 268 276 316 319 330 348 356 15 33 35 30 26 23 16 14 17 18 16 12 10 11 8 8 8 5 4 3 2 3 2 3 5 3 1 359 356 354 353 352 352 349 345 336 321 304 291 281 274 268 265 262 260 256 252 247 242 238 236 233 231 228
112 273 255 251 255 256 265 275 283 289 283 277 280 274 270 272 260 248 250 250 256 265 258 258 280 286 287 302 328 5 15 17 27 26 27 33 24 16 17 15 15 14 12 11 10 9 7 4 1 359 359 358 357 357 358 359 1 1 360 357 354 353 352 351 351 350 348 345 338 327 315 302 290 280 274 269 264 259 254 249 244 240 237 234 231 230
151 264 253 257 266 269 279 288 288 286 284 280 281 280 277 279 275 264 262 263 263 263 265 275 283 282 284 303 29 48 29 30 44 27 20 29 21 21 25 19 16 10 4 5 4 2 1 357 355 355 352 352 352 353 354 355 355 356 356 355 353 352 352 351 350 349 349 348 343 336 328 318 306 294 284 276 269 262 257 251 247 243 238 235 233 231
232 264 258 264 283 294 290 289 286 284 285 281 274 272 276 276 271 267 270 274 270 265 266 270 271 271 286 20 54 54 37 51 74 43 27 30 21 21 22 18 15 7 360 1 356 353 353 349 348 349 348 350 350 349 350 351 351 351 351 351 350 349 350 350 349 349 350 350 347 343 338 331 320 306 293 281 272 266 261 255 249 244 240 237 234 232
258 287 323 319 310 297 285 279 277 277 279 281 281 278 273 269 267 269 272 269 265 266 268 270 268 267 41 59 15 16 25 22 60 46 36 33 22 19 20 14 7 358 353 351 345 345 346 343 344 345 347 348 345 344 346 346 346 346 347 347 347 346 347 348 347 347 348 348 348 347 344 340 331 317 301 285 275 268 263 257 252 246 241 238 235 232
274 302 331 321 294 280 281 281 283 289 289 281 274 267 263 263 266 266 262 259 261 266 275 278 270 262 51 28 350 2 3 1 23 33 33 34 23 20 17 5 356 350 341 332 330 336 338 337 340 340 341 342 341 342 342 341 341 343 343 343 341 342 345 346 346 344 344 345 346 347 346 342 337 329 315 299 285 274 266 260 253 247 243 239 236 233
246 268 296 285 277 274 274 279 298 320 304 275 259 253 254 258 264 263 260 268 287 259 266 272 253 211 283 318 357 354 349 7 3 336 183 157 2 14 15 356 342 331 323 313 311 322 329 331 332 332 335 338 337 338 338 338 338 338 338 338 337 339 341 343 343 342 341 342 344 345 346 344 341 337 330 322 308 292 278 266 258 251 246 242 238 234
233 245 249 247 261 275 279 297 330 306 274 269 261 229 239 256 265 266 266 24 55 183 153 143 142 140 247 273 338 328 315 324 300 269 221 185 248 354 353 336 323 319 317 313 313 320 324 325 324 326 331 333 334 335 335 336 335 334 335 336 337 338 340 340 341 340 340 340 341 343 344 344 342 339 336 333 326 311 293 276 266 258 251 245 239 234
245 245 243 235 244 270 286 314 302 268 255 277 322 115 142 134 115 115 101 107 152 143 119 124 151 157 220 252 255 266 271 274 273 266 248 206 148 354 334 320 318 316 309 308 311 314 316 317 318 321 326 329 332 334 333 334 334 333 334 336 336 336 337 337 337 338 338 339 339 340 342 341 340 338 336 334 331 322 305 286 273 263 255 247 240 235
238 242 239 230 241 261 259 233 253 270 308 17 254 170 96 95 102 99 100 167 172 144 130 151 192 191 215 245 243 247 264 270 269 262 238 198 166 253 283 287 292 290 286 289 292 294 302 308 310 314 320 324 327 330 330 331 333 332 331 333 334 333 334 334 334 335 336 337 337 337 338 338 336 334 332 332 330 324 313 298 283 270 259 250 243 238
223 229 226 231 239 236 226 230 253 304 310 266 244 242 149 146 138 122 162 182 180 216 207 191 212 220 220 235 244 251 270 287 289 265 213 188 188 212 229 249 261 264 266 269 272 281 293 300 304 310 315 318 322 326 327 330 332 332 329 329 330 330 330 330 329 331 332 332 332 333 333 333 332 330 329 328 325 322 316 307 294 281 268 253 245 240
212 216 209 227 244 234 252 267 268 285 282 251 232 257 243 192 176 165 196 183 165 238 237 202 212 229 220 227 247 254 273 298 301 280 210 200 213 219 229 247 253 256 261 264 270 282 291 298 304 308 310 314 318 322 327 330 331 330 325 325 327 327 326 325 326 328 328 326 326 326 326 327 327 326 325 323 320 318 315 310 302 291 278 261 250 245
197 211 209 224 250 240 250 263 254 261 270 187 205 241 240 194 177 162 304 256 152 270 250 200 210 233 224 228 239 219 200 274 295 286 222 203 215 229 243 257 258 262 267 271 278 285 290 298 304 305 307 312 315 318 325 327 327 325 321 321 322 321 320 321 324 325 324 322 321 320 320 321 322 323 322 319 316 313 311 308 303 297 285 269 257 250
136 212 214 221 239 243 248 255 252 267 276 171 195 230 228 150 125 93 295 265 154 242 237 191 211 236 228 227 226 192 202 237 265 272 247 215 224 247 257 264 265 269 274 280 286 289 294 301 304 302 302 305 308 312 319 322 321 317 314 314 314 313 314 318 321 322 321 319 318 317 316 317 318 319 318 316 313 310 307 303 300 295 286 274 263 255
322 254 215 216 234 243 249 257 264 267 247 194 205 228 208 123 98 267 268 247 161 218 218 189 212 233 229 226 216 198 220 230 239 261 271 273 272 267 266 273 279 282 285 288 291 294 299 302 300 294 293 296 299 305 312 317 314 308 307 307 305 305 311 317 319 319 318 317 316 314 314 315 316 316 315 314 312 308 304 300 295 290 282 274 265 256
254 259 239 220 227 237 243 254 269 272 234 169 202 233 190 130 204 243 236 184 179 219 214 195 211 229 232 231 224 221 233 239 244 254 265 273 275 270 269 275 282 286 290 293 295 298 303 303 297 292 291 292 295 301 307 310 304 300 301 300 299 305 313 317 318 318 317 316 313 311 312 314 315 314 312 311 310 306 301 297 292 285 277 269 261 253
232 247 263 222 211 250 251 238 251 264 211 136 150 259 212 178 216 254 283 258 215 215 220 216 217 226 233 236 237 236 238 244 250 250 253 260 266 270 270 271 274 278 283 287 288 292 299 298 293 290 290 292 294 298 302 302 298 296 295 292 296 307 314 315 316 317 315 312 309 308 309 311 311 311 310 308 306 302 296 292 286 279 271 262 254 249
232 223 249 238 225 241 239 231 230 222 205 175 158 204 237 231 246 283 296 285 256 219 218 230 234 237 238 236 240 240 239 244 247 247 251 258 263 267 269 270 273 277 280 282 284 291 296 292 290 292 293 294 295 297 298 297 296 294 290 290 299 310 312 312 314 314 311 309 307 306 307 308 307 306 304 302 300 295 289 284 279 272 265 256 247 243
224 205 227 253 254 226 210 237 248 223 217 232 220 232 255 270 281 275 254 257 264 242 224 238 260 262 252 239 239 241 240 240 243 245 249 257 265 270 274 277 278 279 283 285 287 293 294 289 288 292 294 296 297 299 299 298 294 289 288 294 306 312 311 311 312 310 307 305 304 304 305 306 304 301 299 298 294 287 280 276 270 263 257 249 240 237
257 229 217 272 278 267 249 254 262 270 277 273 269 271 272 276 282 277 249 237 249 252 250 255 263 270 264 244 233 234 236 239 246 254 258 265 274 277 280 283 283 283 284 285 288 293 294 292 290 289 291 294 296 298 301 301 296 289 290 299 309 312 310 310 309 306 304 302 301 302 304 304 302 300 298 296 290 281 274 268 261 254 250 244 236 234
257 227 221 253 266 269 265 262 260 261 267 270 275 280 277 272 270 267 251 244 253 265 272 269 266 268 260 235 223 231 242 247 255 269 278 283 281 280 282 285 287 288 287 285 287 292 294 293 290 289 289 291 293 296 299 298 295 292 294 302 308 309 309 308 306 303 301 299 298 299 300 300 298 297 296 294 288 280 272 265 257 250 245 239 233 231
240 195 207 240 251 253 260 266 267 261 262 268 269 269 273 276 276 271 258 258 268 275 274 272 270 263 246 228 226 241 262 273 276 283 290 289 282 282 286 287 288 290 289 288 289 291 291 288 286 288 289 288 290 295 297 294 293 293 296 301 304 307 308 305 302 299 296 295 295 295 294 293 292 291 292 290 286 279 270 263 254 246 242 240 234 229
249 211 197 225 251 257 261 267 272 272 270 267 262 259 262 268 274 276 271 268 272 277 278 282 287 276 265 329 354 310 285 288 293 294 290 286 284 286 288 287 288 288 286 288 290 290 287 284 284 287 288 286 289 294 295 293 293 294 296 299 301 303 304 300 298 296 293 292 293 291 290 289 286 285 286 285 283 280 273 265 257 250 247 247 242 237
242 248 241 235 254 262 264 264 265 270 272 270 271 272 264 250 262 275 282 288 294 301 307 316 324 342 25 33 26 344 290 288 296 297 287 282 283 285 286 288 289 288 286 288 292 291 287 284 285 285 285 286 289 293 293 293 293 294 296 299 300 300 298 294 292 291 290 290 290 288 289 289 286 284 283 281 279 279 277 272 265 256 252 252 250 246
229 239 244 244 250 259 266 265 262 264 266 269 278 289 321 14 326 315 326 340 349 2 8 358 339 332 342 358 358 325 290 285 293 296 289 285 283 284 286 287 285 285 288 291 293 292 290 288 287 285 284 286 290 292 292 293 293 294 296 299 300 298 294 289 287 286 285 286 286 286 287 286 283 283 282 278 275 274 275 275 271 261 253 250 251 250